CEB211 RPUV-RPLL

Flight info

Callsign CEB211
Flight time 0h 42m
Altitude 28000
Route NGA DCT IBAGO IBAGO1A
Aircraft A20N/M-SDE2E3FGHIRWXY/LB1

Departure

Time 2026-04-23 10:04
Airport Virac Airport (RPUV)

Arrival

Time 2026-04-23 10:46
Airport Ninoy Aquino International Airport (RPLL)
Time Latitude Longitude Altitude Speed Heading
2026-04-23 09:51 13.57974 124.21227 108 ft 0 kts 180°
2026-04-23 10:01 13.57973 124.21226 106 ft 0 kts 200°
2026-04-23 10:01 13.57972 124.21219 106 ft 3 kts 243°
2026-04-23 10:01 13.57997 124.21200 106 ft 2 kts
2026-04-23 10:02 13.58024 124.21217 106 ft 3 kts 12°
2026-04-23 10:02 13.58060 124.21208 106 ft 0 kts 334°
2026-04-23 10:02 13.58076 124.21197 107 ft 5 kts 320°
2026-04-23 10:02 13.58075 124.21157 108 ft 8 kts 239°
2026-04-23 10:03 13.58045 124.21116 109 ft 0 kts 242°
2026-04-23 10:03 13.58043 124.21110 109 ft 13 kts 243°
2026-04-23 10:03 13.57836 124.20736 113 ft 106 kts 240°
2026-04-23 10:03 13.57352 124.19860 200 ft 167 kts 239°
2026-04-23 10:04 13.56772 124.18829 1022 ft 167 kts 237°
2026-04-23 10:04 13.56199 124.17779 1922 ft 170 kts 238°
2026-04-23 10:04 13.55599 124.16685 2477 ft 186 kts 238°
2026-04-23 10:04 13.55015 124.15429 2938 ft 207 kts 255°
2026-04-23 10:05 13.54944 124.13900 3459 ft 218 kts 270°
2026-04-23 10:05 13.55024 124.12269 3927 ft 242 kts 272°
2026-04-23 10:05 13.55139 124.10464 4551 ft 261 kts 272°
2026-04-23 10:05 13.55245 124.08563 5260 ft 274 kts 271°
2026-04-23 10:06 13.55338 124.06592 6244 ft 276 kts 271°
2026-04-23 10:06 13.55420 124.04620 7146 ft 279 kts 270°
2026-04-23 10:06 13.55496 124.02623 8054 ft 281 kts 270°
2026-04-23 10:06 13.55572 124.00576 8924 ft 286 kts 271°
2026-04-23 10:07 13.55648 123.98532 9809 ft 289 kts 271°
2026-04-23 10:07 13.55725 123.96448 10376 ft 303 kts 271°
2026-04-23 10:07 13.55806 123.94185 10645 ft 326 kts 271°
2026-04-23 10:07 13.55894 123.91801 11022 ft 342 kts 271°
2026-04-23 10:08 13.55985 123.89339 11753 ft 345 kts 271°
2026-04-23 10:08 13.56077 123.86848 12499 ft 350 kts 271°
2026-04-23 10:08 13.56169 123.84349 13193 ft 355 kts 271°
2026-04-23 10:09 13.56357 123.79226 14510 ft 362 kts 271°
2026-04-23 10:09 13.56452 123.76638 15142 ft 366 kts 272°
2026-04-23 10:09 13.56548 123.74021 15761 ft 369 kts 272°
2026-04-23 10:09 13.56645 123.71348 16379 ft 373 kts 272°
2026-04-23 10:10 13.56742 123.68692 16971 ft 376 kts 272°
2026-04-23 10:10 13.56839 123.66004 17554 ft 380 kts 272°
2026-04-23 10:10 13.56938 123.63285 18127 ft 383 kts 272°
2026-04-23 10:10 13.57038 123.60506 18611 ft 387 kts 272°
2026-04-23 10:11 13.57136 123.57761 19115 ft 390 kts 272°
2026-04-23 10:11 13.57237 123.54936 19593 ft 393 kts 272°
2026-04-23 10:11 13.57337 123.52132 20076 ft 397 kts 272°
2026-04-23 10:11 13.57438 123.49273 20575 ft 400 kts 272°
2026-04-23 10:12 13.57539 123.46431 21055 ft 403 kts 272°
2026-04-23 10:12 13.57642 123.43522 21533 ft 406 kts 272°
2026-04-23 10:12 13.57744 123.40623 22006 ft 410 kts 272°
2026-04-23 10:12 13.57847 123.37684 22481 ft 413 kts 272°
2026-04-23 10:13 13.57952 123.34704 22961 ft 416 kts 272°
2026-04-23 10:13 13.58055 123.31750 23419 ft 419 kts 272°
2026-04-23 10:13 13.58160 123.28716 23828 ft 421 kts 272°
2026-04-23 10:13 13.58207 123.25710 24253 ft 423 kts 269°
2026-04-23 10:14 13.58151 123.22694 24647 ft 425 kts 269°
2026-04-23 10:14 13.58101 123.19649 25034 ft 428 kts 269°
2026-04-23 10:14 13.58053 123.16580 25420 ft 430 kts 269°
2026-04-23 10:14 13.58004 123.13478 25802 ft 433 kts 269°
2026-04-23 10:15 13.57955 123.10379 26174 ft 435 kts 269°
2026-04-23 10:15 13.57904 123.07261 26545 ft 437 kts 269°
2026-04-23 10:15 13.57852 123.04115 26898 ft 440 kts 269°
2026-04-23 10:15 13.57800 123.00980 27252 ft 442 kts 269°
2026-04-23 10:16 13.57746 122.97802 27606 ft 445 kts 269°
2026-04-23 10:16 13.57693 122.94633 27821 ft 447 kts 269°
2026-04-23 10:16 13.57638 122.91398 27858 ft 447 kts 269°
2026-04-23 10:16 13.57583 122.88215 27859 ft 447 kts 269°
2026-04-23 10:17 13.57528 122.85013 27858 ft 447 kts 269°
2026-04-23 10:17 13.57472 122.81831 27861 ft 447 kts 269°
2026-04-23 10:17 13.57416 122.78641 27861 ft 446 kts 269°
2026-04-23 10:17 13.57361 122.75479 27858 ft 447 kts 269°
2026-04-23 10:18 13.57304 122.72282 27859 ft 447 kts 269°
2026-04-23 10:18 13.57246 122.69073 27860 ft 447 kts 269°
2026-04-23 10:18 13.57189 122.65906 27859 ft 447 kts 269°
2026-04-23 10:18 13.57130 122.62670 27859 ft 447 kts 269°
2026-04-23 10:19 13.57072 122.59492 27856 ft 447 kts 269°
2026-04-23 10:19 13.57013 122.56309 27860 ft 447 kts 269°
2026-04-23 10:19 13.56954 122.53123 27858 ft 447 kts 269°
2026-04-23 10:19 13.56894 122.49907 27860 ft 447 kts 269°
2026-04-23 10:20 13.56834 122.46728 27857 ft 447 kts 269°
2026-04-23 10:20 13.56775 122.43571 27798 ft 447 kts 269°
2026-04-23 10:20 13.56713 122.40326 27566 ft 446 kts 269°
2026-04-23 10:20 13.56652 122.37169 27321 ft 443 kts 269°
2026-04-23 10:21 13.56592 122.34027 27079 ft 441 kts 269°
2026-04-23 10:21 13.56530 122.30842 26834 ft 440 kts 269°
2026-04-23 10:21 13.56469 122.27714 26594 ft 438 kts 269°
2026-04-23 10:21 13.56408 122.24602 26355 ft 436 kts 268°
2026-04-23 10:22 13.56346 122.21496 26123 ft 435 kts 268°
2026-04-23 10:22 13.56284 122.18384 25889 ft 433 kts 268°
2026-04-23 10:22 13.56223 122.15314 25661 ft 432 kts 268°
2026-04-23 10:22 13.56160 122.12235 25430 ft 431 kts 268°
2026-04-23 10:23 13.56098 122.09136 25201 ft 429 kts 268°
2026-04-23 10:23 13.56035 122.06089 24977 ft 428 kts 268°
2026-04-23 10:23 13.55972 122.03022 24754 ft 426 kts 268°
2026-04-23 10:23 13.55910 122.00000 24533 ft 425 kts 268°
2026-04-23 10:24 13.55847 121.96971 24313 ft 424 kts 268°
2026-04-23 10:24 13.55783 121.93944 24093 ft 423 kts 268°
2026-04-23 10:24 13.55720 121.90922 23874 ft 422 kts 268°
2026-04-23 10:24 13.55656 121.87899 23658 ft 420 kts 268°
2026-04-23 10:25 13.55593 121.84911 23439 ft 419 kts 268°
2026-04-23 10:25 13.55529 121.81938 23192 ft 418 kts 268°
2026-04-23 10:25 13.55465 121.78957 22934 ft 416 kts 268°
2026-04-23 10:25 13.55400 121.75966 22685 ft 414 kts 268°
2026-04-23 10:26 13.55336 121.73046 22424 ft 412 kts 269°
2026-04-23 10:26 13.55271 121.70081 22172 ft 411 kts 269°
2026-04-23 10:26 13.55208 121.67175 21927 ft 409 kts 269°
2026-04-23 10:26 13.55143 121.64256 21682 ft 407 kts 269°
2026-04-23 10:27 13.55099 121.62292 21514 ft 406 kts 269°
2026-04-23 10:27 13.55014 121.58457 21186 ft 404 kts 269°
2026-04-23 10:27 13.54949 121.55564 20952 ft 403 kts 269°
2026-04-23 10:27 13.54905 121.53639 20796 ft 402 kts 269°
2026-04-23 10:28 13.54819 121.49827 20482 ft 400 kts 269°
2026-04-23 10:28 13.54775 121.47918 20323 ft 399 kts 269°
2026-04-23 10:28 13.54711 121.45089 20092 ft 398 kts 269°
2026-04-23 10:28 13.54646 121.42262 19864 ft 397 kts 269°
2026-04-23 10:29 13.54580 121.39437 19774 ft 387 kts 269°
2026-04-23 10:29 13.54517 121.36722 19667 ft 375 kts 269°
2026-04-23 10:29 13.54461 121.34265 19558 ft 362 kts 269°
2026-04-23 10:29 13.54725 121.31736 19415 ft 349 kts 286°
2026-04-23 10:30 13.55712 121.29492 19146 ft 341 kts 304°
2026-04-23 10:30 13.57187 121.27668 18931 ft 334 kts 311°
2026-04-23 10:30 13.58744 121.25866 18716 ft 337 kts 311°
2026-04-23 10:30 13.60293 121.24063 18488 ft 339 kts 311°
2026-04-23 10:31 13.61860 121.22234 18269 ft 337 kts 311°
2026-04-23 10:31 13.63394 121.20443 17917 ft 335 kts 311°
2026-04-23 10:31 13.64944 121.18631 17496 ft 333 kts 311°
2026-04-23 10:31 13.66454 121.16867 17101 ft 330 kts 311°
2026-04-23 10:32 13.67462 121.15688 16830 ft 329 kts 311°
2026-04-23 10:32 13.68470 121.14510 16560 ft 327 kts 311°
2026-04-23 10:32 13.69958 121.12770 16168 ft 325 kts 311°
2026-04-23 10:32 13.71459 121.11014 15766 ft 323 kts 311°
2026-04-23 10:33 13.72920 121.09304 15374 ft 321 kts 311°
2026-04-23 10:33 13.74393 121.07581 14973 ft 320 kts 311°
2026-04-23 10:33 13.75855 121.05870 14584 ft 318 kts 311°
2026-04-23 10:33 13.77314 121.04162 14187 ft 317 kts 311°
2026-04-23 10:34 13.78772 121.02455 13788 ft 316 kts 311°
2026-04-23 10:34 13.80219 121.00760 13375 ft 315 kts 311°
2026-04-23 10:34 13.81766 120.99180 12978 ft 311 kts 325°
2026-04-23 10:34 13.83679 120.98230 12591 ft 308 kts 346°
2026-04-23 10:35 13.85709 120.97931 12214 ft 305 kts 355°
2026-04-23 10:35 13.87837 120.97715 11829 ft 303 kts 355°
2026-04-23 10:35 13.89921 120.97499 11445 ft 301 kts 355°
2026-04-23 10:35 13.91990 120.97282 11066 ft 300 kts 355°
2026-04-23 10:36 13.94060 120.97062 10688 ft 298 kts 355°
2026-04-23 10:36 13.96116 120.96842 10300 ft 297 kts 355°
2026-04-23 10:36 13.98181 120.96622 9916 ft 296 kts 356°
2026-04-23 10:36 14.00221 120.96405 9506 ft 295 kts 356°
2026-04-23 10:37 14.02256 120.96191 9130 ft 293 kts 356°
2026-04-23 10:37 14.04290 120.95977 8755 ft 292 kts 356°
2026-04-23 10:37 14.06294 120.95767 8373 ft 290 kts 355°
2026-04-23 10:37 14.08284 120.95558 7998 ft 288 kts 355°
2026-04-23 10:38 14.10291 120.95347 7617 ft 287 kts 355°
2026-04-23 10:38 14.12271 120.95138 7239 ft 286 kts 355°
2026-04-23 10:38 14.14244 120.94931 6906 ft 284 kts 355°
2026-04-23 10:38 14.14876 120.94865 6868 ft 280 kts 355°
2026-04-23 10:39 14.16375 120.94670 6787 ft 271 kts 349°
2026-04-23 10:39 14.18132 120.94086 6562 ft 265 kts 335°
2026-04-23 10:39 14.19730 120.93164 6234 ft 264 kts 330°
2026-04-23 10:40 14.21315 120.92212 6027 ft 257 kts 330°
2026-04-23 10:40 14.22862 120.91293 5986 ft 261 kts 330°
2026-04-23 10:40 14.24443 120.90359 5978 ft 260 kts 330°
2026-04-23 10:40 14.26001 120.89438 5979 ft 259 kts 330°
2026-04-23 10:41 14.27541 120.88527 5974 ft 245 kts 330°
2026-04-23 10:41 14.29051 120.87881 5982 ft 229 kts 354°
2026-04-23 10:41 14.30661 120.87974 5983 ft 237 kts 12°
2026-04-23 10:41 14.32245 120.88342 5973 ft 233 kts 15°
2026-04-23 10:42 14.33650 120.88720 5976 ft 234 kts 16°
2026-04-23 10:42 14.35219 120.89157 5980 ft 234 kts 16°
2026-04-23 10:42 14.36786 120.89582 5976 ft 234 kts 11°
2026-04-23 10:42 14.38371 120.89471 5928 ft 228 kts 339°
2026-04-23 10:43 14.39787 120.88825 5775 ft 215 kts 348°
2026-04-23 10:43 14.41239 120.88872 5395 ft 208 kts 23°
2026-04-23 10:43 14.42446 120.89661 4976 ft 207 kts 42°
2026-04-23 10:43 14.43505 120.90652 4624 ft 206 kts 44°
2026-04-23 10:44 14.44591 120.91683 3724 ft 218 kts 46°
2026-04-23 10:44 14.45645 120.92801 2740 ft 221 kts 52°
2026-04-23 10:44 14.46492 120.94163 1805 ft 222 kts 64°
2026-04-23 10:44 14.47212 120.95522 1295 ft 208 kts 62°
2026-04-23 10:45 14.47941 120.96716 946 ft 191 kts 59°
2026-04-23 10:45 14.48581 120.97814 727 ft 164 kts 64°
2026-04-23 10:45 14.49100 120.98770 504 ft 143 kts 63°
2026-04-23 10:45 14.49575 120.99615 240 ft 131 kts 64°
2026-04-23 10:46 14.50020 121.00425 89 ft 130 kts 62°
2026-04-23 10:46 14.50462 121.01212 65 ft 120 kts 65°
2026-04-23 10:46 14.50772 121.01794 66 ft 70 kts 61°
2026-04-23 10:46 14.50971 121.02139 63 ft 47 kts 56°
2026-04-23 10:47 14.51117 121.02289 67 ft 15 kts 36°
2026-04-23 10:47 14.51189 121.02263 65 ft 14 kts 271°
2026-04-23 10:47 14.51131 121.02147 60 ft 22 kts 239°
2026-04-23 10:47 14.51038 121.01987 68 ft 20 kts 240°
2026-04-23 10:48 14.51022 121.01945 62 ft 9 kts 263°
2026-04-23 10:48 14.51079 121.01876 68 ft 18 kts 314°
2026-04-23 10:48 14.51193 121.01757 68 ft 28 kts 315°
2026-04-23 10:48 14.51348 121.01596 68 ft 35 kts 316°
2026-04-23 10:49 14.51394 121.01561 66 ft 4 kts 354°
2026-04-23 10:49 14.51442 121.01599 65 ft 14 kts 40°
2026-04-23 10:49 14.51535 121.01685 68 ft 22 kts 44°
2026-04-23 10:49 14.51578 121.01728 64 ft 4 kts 44°
2026-04-23 10:50 14.51626 121.01775 63 ft 14 kts 39°
2026-04-23 10:50 14.51692 121.01769 68 ft 0 kts 296°
2026-04-23 10:50 14.51677 121.01748 67 ft 7 kts 199°
2026-04-23 10:50 14.51665 121.01745 62 ft 1 kts 205°
2026-04-23 10:51 14.51657 121.01729 66 ft 0 kts 231°
2026-04-23 10:51 14.51648 121.01720 63 ft 0 kts 226°